User: anonymous   Login
Location: Arbon
(43.0005°N, 0.7472°E)
Time: 10:59:51
(UTC+00:00)
Language:

Cosmos 1726 - Orbit

View from above orbital plane
View from above orbital plane
View from above satellite
View from above satellite

Ground track
Ground track

The orbit data is extracted from the following two-line orbital elements,

1 16495U 86006A   20299.92898337 +.00001493 +00000-0 +58092-4 0  9991
2 16495 082.4701 279.1530 0011805 202.8720 157.1994 15.25166432902947
Epoch (UTC): 25 October 2020 22:17:44
Eccentricity: 0.0011805
inclination: 82.4701°
perigee height: 482 km
apogee height: 498 km
right ascension of ascending node: 279.1530°
argument of perigee: 202.8720°
revolutions per day: 15.25166432
mean anomaly at epoch: 157.1994°
orbit number at epoch: 90294

The dashed part of the orbit path shows where the satellite is in the earth's shadow,  

DLR